Tracking 23752 objects as of 23-Oct-2021
HD Live streaming from Space Station
objects crossing your sky now

SL-8 DEB

Track SL-8 DEB now!
10-day predictions


NORAD ID: 21109
Int'l Code: 1991-009K
Perigee: 1,464.5 km
Apogee: 1,732.7 km
Inclination: 74.0 °
Period: 118.0 minutes
Semi major axis: 7969 km
RCS: 0.6993 m2 (medium)
Launch date: February 12, 1991
Source: Commonwealth of Independent States (former USSR) (CIS)
Launch site: PLESETSK MISSILE AND SPACE COMPLEX (PKMTR)

Note: This is SATELLITE DEBRIS
aabbcc
Your satellite tracking list
Your tracking list is empty




NASA's NSSDC Master Catalog

Two Line Element Set (TLE):
1 21109U 91009K   21295.78349503  .00000682  00000-0  64266-2 0  9992
2 21109  74.0277 173.2151 0168284 210.6413 224.9194 12.20248124366178
Source of the keplerian elements: AFSPC